SUR4101 MROC-MPTO

Flight info

Callsign SUR4101
Flight time 0h 55m
Altitude 37000
Route TEJAR3M LIO UA317 BUFEO DCT BITOR VUMAN2C
Aircraft B736/M-SDE2E3FGHIRWXY/LB1

Departure

Time 2026-05-06 18:40
Airport Juan Santamaría International Airport (MROC)

Arrival

Time 2026-05-06 19:35
Airport Tocumen International Airport (MPTO)
Time Latitude Longitude Altitude Speed Heading
2026-05-06 17:54 9.99735 -84.20387 3032 ft 0 kts 340°
2026-05-06 18:27 9.99733 -84.20386 3033 ft 1 kts 340°
2026-05-06 18:27 9.99720 -84.20386 3032 ft 1 kts
2026-05-06 18:27 9.99713 -84.20387 3032 ft 1 kts 336°
2026-05-06 18:28 9.99706 -84.20380 3032 ft 1 kts 278°
2026-05-06 18:28 9.99706 -84.20375 3032 ft 0 kts 250°
2026-05-06 18:28 9.99709 -84.20368 3033 ft 1 kts 248°
2026-05-06 18:28 9.99710 -84.20367 3033 ft 0 kts 248°
2026-05-06 18:32 9.99704 -84.20381 3032 ft 5 kts 248°
2026-05-06 18:32 9.99689 -84.20419 3030 ft 8 kts 246°
2026-05-06 18:32 9.99646 -84.20478 3027 ft 12 kts 234°
2026-05-06 18:33 9.99608 -84.20561 3022 ft 14 kts 248°
2026-05-06 18:33 9.99563 -84.20671 3016 ft 18 kts 249°
2026-05-06 18:33 9.99547 -84.20716 3013 ft 6 kts 250°
2026-05-06 18:33 9.99527 -84.20773 3010 ft 10 kts 250°
2026-05-06 18:34 9.99497 -84.20860 3006 ft 15 kts 250°
2026-05-06 18:34 9.99457 -84.20972 3000 ft 9 kts 250°
2026-05-06 18:34 9.99439 -84.21020 2998 ft 9 kts 248°
2026-05-06 18:34 9.99407 -84.21101 2994 ft 14 kts 249°
2026-05-06 18:35 9.99365 -84.21213 2988 ft 19 kts 249°
2026-05-06 18:35 9.99313 -84.21349 2980 ft 15 kts 249°
2026-05-06 18:35 9.99268 -84.21469 2974 ft 20 kts 249°
2026-05-06 18:35 9.99214 -84.21616 2964 ft 25 kts 249°
2026-05-06 18:36 9.99149 -84.21789 2955 ft 28 kts 249°
2026-05-06 18:36 9.99091 -84.21943 2947 ft 23 kts 250°
2026-05-06 18:36 9.99053 -84.22049 2943 ft 12 kts 251°
2026-05-06 18:36 9.99025 -84.22131 2940 ft 8 kts 242°
2026-05-06 18:37 9.99019 -84.22141 2940 ft 0 kts 232°
2026-05-06 18:38 9.99005 -84.22156 2939 ft 7 kts 226°
2026-05-06 18:38 9.98944 -84.22181 2939 ft 9 kts 174°
2026-05-06 18:38 9.98922 -84.22140 2942 ft 6 kts 70°
2026-05-06 18:39 9.98925 -84.22131 2943 ft 3 kts 70°
2026-05-06 18:39 9.99025 -84.21864 2955 ft 71 kts 70°
2026-05-06 18:39 9.99286 -84.21184 2990 ft 134 kts 66°
2026-05-06 18:40 10.00128 -84.18701 4431 ft 218 kts 73°
2026-05-06 18:40 10.00606 -84.17297 5610 ft 218 kts 65°
2026-05-06 18:40 10.01282 -84.15886 6589 ft 228 kts 63°
2026-05-06 18:40 10.01922 -84.14432 7678 ft 232 kts 71°
2026-05-06 18:41 10.02095 -84.12839 8753 ft 235 kts 98°
2026-05-06 18:41 10.01490 -84.11299 9730 ft 245 kts 121°
2026-05-06 18:41 10.00343 -84.09969 10558 ft 262 kts 135°
2026-05-06 18:41 9.98880 -84.08743 11412 ft 277 kts 139°
2026-05-06 18:42 9.97321 -84.07512 12250 ft 292 kts 139°
2026-05-06 18:42 9.95689 -84.06211 13255 ft 299 kts 138°
2026-05-06 18:42 9.94060 -84.04891 14332 ft 304 kts 137°
2026-05-06 18:42 9.92395 -84.03529 15383 ft 309 kts 137°
2026-05-06 18:43 9.90700 -84.02142 16391 ft 316 kts 137°
2026-05-06 18:43 9.88974 -84.00756 17379 ft 321 kts 137°
2026-05-06 18:43 9.87197 -83.99346 18357 ft 327 kts 138°
2026-05-06 18:43 9.85440 -83.97900 19316 ft 330 kts 134°
2026-05-06 18:44 9.83878 -83.96159 20237 ft 333 kts 123°
2026-05-06 18:44 9.82736 -83.94117 21129 ft 335 kts 110°
2026-05-06 18:44 9.82073 -83.91840 22011 ft 336 kts 97°
2026-05-06 18:44 9.81931 -83.89470 22837 ft 340 kts 85°
2026-05-06 18:45 9.82311 -83.87072 23641 ft 345 kts 75°
2026-05-06 18:45 9.82994 -83.84721 24406 ft 351 kts 72°
2026-05-06 18:45 9.83694 -83.82323 25151 ft 358 kts 74°
2026-05-06 18:45 9.84300 -83.79859 25899 ft 363 kts 76°
2026-05-06 18:46 9.84820 -83.77309 26622 ft 369 kts 78°
2026-05-06 18:46 9.85278 -83.74711 27325 ft 374 kts 79°
2026-05-06 18:46 9.85704 -83.72093 27977 ft 380 kts 80°
2026-05-06 18:46 9.86126 -83.69403 28650 ft 385 kts 80°
2026-05-06 18:47 9.86543 -83.66697 29312 ft 390 kts 80°
2026-05-06 18:47 9.86959 -83.63982 29930 ft 395 kts 80°
2026-05-06 18:47 9.87384 -83.61207 30521 ft 400 kts 80°
2026-05-06 18:47 9.87816 -83.58382 31094 ft 406 kts 80°
2026-05-06 18:48 9.88253 -83.55524 31667 ft 411 kts 80°
2026-05-06 18:48 9.88693 -83.52646 32229 ft 416 kts 80°
2026-05-06 18:48 9.89133 -83.49769 32786 ft 421 kts 80°
2026-05-06 18:48 9.89586 -83.46812 33398 ft 425 kts 80°
2026-05-06 18:49 9.90042 -83.43833 33984 ft 429 kts 81°
2026-05-06 18:49 9.90502 -83.40835 34547 ft 433 kts 80°
2026-05-06 18:49 9.90962 -83.37821 35026 ft 437 kts 81°
2026-05-06 18:50 9.91886 -83.31781 35045 ft 429 kts 81°
2026-05-06 18:50 9.92797 -83.25822 35018 ft 430 kts 81°
2026-05-06 18:51 9.93716 -83.19814 34987 ft 430 kts 81°
2026-05-06 18:51 9.94623 -83.13871 34962 ft 430 kts 81°
2026-05-06 18:52 9.95538 -83.07858 34954 ft 430 kts 81°
2026-05-06 18:52 9.95786 -83.01809 34935 ft 431 kts 97°
2026-05-06 18:53 9.94344 -82.95936 34934 ft 432 kts 107°
2026-05-06 18:53 9.92435 -82.90189 34928 ft 431 kts 109°
2026-05-06 18:54 9.90501 -82.84441 34922 ft 430 kts 108°
2026-05-06 18:54 9.88603 -82.78691 34918 ft 431 kts 108°
2026-05-06 18:55 9.86727 -82.72926 34921 ft 432 kts 108°
2026-05-06 18:55 9.84865 -82.67165 34923 ft 431 kts 107°
2026-05-06 18:56 9.82996 -82.61371 34924 ft 432 kts 107°
2026-05-06 18:56 9.81128 -82.55592 34924 ft 431 kts 108°
2026-05-06 18:57 9.79185 -82.49902 34917 ft 430 kts 109°
2026-05-06 18:57 9.77179 -82.44179 34914 ft 430 kts 109°
2026-05-06 18:58 9.75173 -82.38453 34907 ft 430 kts 109°
2026-05-06 18:58 9.73180 -82.32741 34906 ft 430 kts 109°
2026-05-06 18:59 9.71200 -82.27052 34907 ft 430 kts 109°
2026-05-06 18:59 9.69208 -82.21324 34909 ft 430 kts 109°
2026-05-06 19:00 9.67219 -82.15606 34909 ft 430 kts 109°
2026-05-06 19:00 9.65231 -82.09894 34911 ft 429 kts 109°
2026-05-06 19:01 9.63249 -82.04202 34910 ft 429 kts 109°
2026-05-06 19:01 9.61272 -81.98528 34906 ft 429 kts 109°
2026-05-06 19:02 9.59279 -81.92810 34905 ft 429 kts 109°
2026-05-06 19:02 9.57301 -81.87137 34904 ft 430 kts 109°
2026-05-06 19:03 9.55304 -81.81414 34905 ft 431 kts 109°
2026-05-06 19:03 9.53317 -81.75721 34904 ft 431 kts 109°
2026-05-06 19:04 9.51314 -81.69986 34904 ft 430 kts 109°
2026-05-06 19:04 9.49328 -81.64307 34905 ft 430 kts 109°
2026-05-06 19:05 9.47329 -81.58590 34904 ft 431 kts 109°
2026-05-06 19:05 9.45326 -81.52868 34904 ft 431 kts 109°
2026-05-06 19:06 9.43326 -81.47157 34903 ft 432 kts 109°
2026-05-06 19:06 9.41331 -81.41460 34905 ft 431 kts 109°
2026-05-06 19:07 9.39321 -81.35731 34905 ft 431 kts 109°
2026-05-06 19:07 9.37327 -81.30051 34904 ft 431 kts 109°
2026-05-06 19:08 9.35319 -81.24328 34896 ft 431 kts 109°
2026-05-06 19:08 9.34333 -81.21520 34655 ft 423 kts 109°
2026-05-06 19:08 9.33346 -81.18711 34216 ft 416 kts 109°
2026-05-06 19:08 9.32385 -81.15975 33635 ft 413 kts 109°
2026-05-06 19:09 9.31434 -81.13268 32997 ft 411 kts 109°
2026-05-06 19:09 9.30469 -81.10522 32358 ft 411 kts 108°
2026-05-06 19:09 9.29521 -81.07822 31731 ft 410 kts 108°
2026-05-06 19:09 9.28571 -81.05120 31050 ft 411 kts 108°
2026-05-06 19:10 9.27611 -81.02389 30360 ft 411 kts 108°
2026-05-06 19:10 9.26657 -80.99674 29837 ft 406 kts 108°
2026-05-06 19:10 9.25730 -80.96999 29334 ft 401 kts 107°
2026-05-06 19:10 9.24830 -80.94350 28830 ft 396 kts 107°
2026-05-06 19:11 9.23946 -80.91726 28314 ft 392 kts 107°
2026-05-06 19:11 9.23074 -80.89133 27829 ft 387 kts 107°
2026-05-06 19:11 9.22218 -80.86591 27354 ft 387 kts 107°
2026-05-06 19:11 9.21339 -80.83979 26823 ft 400 kts 107°
2026-05-06 19:12 9.20434 -80.81295 26241 ft 403 kts 107°
2026-05-06 19:12 9.19534 -80.78636 25721 ft 396 kts 107°
2026-05-06 19:12 9.18646 -80.76022 25205 ft 390 kts 107°
2026-05-06 19:12 9.17773 -80.73455 24718 ft 384 kts 107°
2026-05-06 19:13 9.16922 -80.70951 24221 ft 378 kts 107°
2026-05-06 19:13 9.16065 -80.68424 23723 ft 386 kts 106°
2026-05-06 19:13 9.15196 -80.65855 23175 ft 390 kts 106°
2026-05-06 19:13 9.14312 -80.63249 22633 ft 390 kts 106°
2026-05-06 19:14 9.13434 -80.60663 22109 ft 389 kts 106°
2026-05-06 19:14 9.12558 -80.58088 21574 ft 384 kts 106°
2026-05-06 19:14 9.11699 -80.55568 21097 ft 376 kts 106°
2026-05-06 19:14 9.10857 -80.53095 20604 ft 369 kts 107°
2026-05-06 19:15 9.10029 -80.50661 20105 ft 362 kts 107°
2026-05-06 19:15 9.09227 -80.48305 19621 ft 356 kts 107°
2026-05-06 19:15 9.08426 -80.45950 19136 ft 350 kts 107°
2026-05-06 19:15 9.07645 -80.43650 18660 ft 344 kts 107°
2026-05-06 19:16 9.06877 -80.41386 18238 ft 336 kts 107°
2026-05-06 19:16 9.06163 -80.39181 18023 ft 322 kts 104°
2026-05-06 19:16 9.05650 -80.37019 17763 ft 311 kts 100°
2026-05-06 19:16 9.05269 -80.34907 17364 ft 306 kts 98°
2026-05-06 19:17 9.04922 -80.32798 16970 ft 302 kts 98°
2026-05-06 19:17 9.04565 -80.30708 16581 ft 298 kts 99°
2026-05-06 19:17 9.04196 -80.28655 16201 ft 294 kts 99°
2026-05-06 19:17 9.03825 -80.26659 15834 ft 290 kts 99°
2026-05-06 19:18 9.03449 -80.24664 15459 ft 287 kts 100°
2026-05-06 19:18 9.03076 -80.22691 15090 ft 284 kts 100°
2026-05-06 19:18 9.02712 -80.20759 14730 ft 280 kts 100°
2026-05-06 19:18 9.02348 -80.18829 14374 ft 278 kts 100°
2026-05-06 19:19 9.01980 -80.16872 14019 ft 289 kts 100°
2026-05-06 19:19 9.01603 -80.14860 13653 ft 296 kts 100°
2026-05-06 19:19 9.01220 -80.12830 13275 ft 292 kts 100°
2026-05-06 19:19 9.00844 -80.10840 12881 ft 288 kts 100°
2026-05-06 19:20 9.00471 -80.08865 12522 ft 283 kts 100°
2026-05-06 19:20 9.00104 -80.06918 12164 ft 280 kts 100°
2026-05-06 19:20 8.99743 -80.05004 11795 ft 277 kts 100°
2026-05-06 19:20 8.99385 -80.03106 11418 ft 274 kts 100°
2026-05-06 19:21 8.99031 -80.01230 11067 ft 271 kts 100°
2026-05-06 19:21 8.98681 -79.99375 10748 ft 267 kts 100°
2026-05-06 19:21 8.98334 -79.97533 10406 ft 267 kts 100°
2026-05-06 19:21 8.97976 -79.95633 10070 ft 280 kts 100°
2026-05-06 19:22 8.97617 -79.93735 9932 ft 270 kts 100°
2026-05-06 19:22 8.97268 -79.91890 9661 ft 265 kts 99°
2026-05-06 19:22 8.96920 -79.90053 9267 ft 264 kts 99°
2026-05-06 19:22 8.96579 -79.88249 8934 ft 261 kts 99°
2026-05-06 19:23 8.96239 -79.86446 8612 ft 258 kts 99°
2026-05-06 19:23 8.95906 -79.84669 8280 ft 256 kts 99°
2026-05-06 19:23 8.95580 -79.82912 7956 ft 252 kts 99°
2026-05-06 19:23 8.95206 -79.81201 7679 ft 250 kts 103°
2026-05-06 19:24 8.94697 -79.79509 7347 ft 249 kts 106°
2026-05-06 19:24 8.94131 -79.77867 7031 ft 248 kts 107°
2026-05-06 19:24 8.93560 -79.76197 6723 ft 260 kts 107°
2026-05-06 19:24 8.92976 -79.74431 6396 ft 264 kts 106°
2026-05-06 19:25 8.92408 -79.72684 6073 ft 262 kts 106°
2026-05-06 19:25 8.91845 -79.70955 5804 ft 257 kts 106°
2026-05-06 19:25 8.91292 -79.69257 5698 ft 245 kts 105°
2026-05-06 19:25 8.90775 -79.67667 5625 ft 234 kts 105°
2026-05-06 19:26 8.90273 -79.66126 5549 ft 224 kts 105°
2026-05-06 19:26 8.89799 -79.64671 5474 ft 215 kts 105°
2026-05-06 19:26 8.89345 -79.63268 5399 ft 206 kts 105°
2026-05-06 19:26 8.88893 -79.61866 5331 ft 212 kts 105°
2026-05-06 19:27 8.88462 -79.60465 5252 ft 205 kts 101°
2026-05-06 19:27 8.88349 -79.59055 5070 ft 198 kts 83°
2026-05-06 19:27 8.88510 -79.57677 4830 ft 197 kts 80°
2026-05-06 19:27 8.88648 -79.56305 4621 ft 196 kts 82°
2026-05-06 19:28 8.88744 -79.54946 4414 ft 194 kts 83°
2026-05-06 19:28 8.88835 -79.53589 4211 ft 192 kts 83°
2026-05-06 19:28 8.88985 -79.52281 4082 ft 183 kts 73°
2026-05-06 19:28 8.89557 -79.51230 4015 ft 163 kts 42°
2026-05-06 19:29 8.90433 -79.50532 3833 ft 157 kts 37°
2026-05-06 19:29 8.91261 -79.49842 3665 ft 153 kts 40°
2026-05-06 19:29 8.92057 -79.49133 3511 ft 146 kts 39°
2026-05-06 19:29 8.92818 -79.48473 3363 ft 143 kts 39°
2026-05-06 19:30 8.93575 -79.47813 3221 ft 142 kts 39°
2026-05-06 19:30 8.94326 -79.47160 3084 ft 142 kts 38°
2026-05-06 19:30 8.95081 -79.46506 2950 ft 142 kts 38°
2026-05-06 19:30 8.95801 -79.45875 2811 ft 132 kts 38°
2026-05-06 19:31 8.96495 -79.45271 2694 ft 130 kts 37°
2026-05-06 19:31 8.97257 -79.44763 2568 ft 131 kts 28°
2026-05-06 19:31 8.98801 -79.43874 2189 ft 121 kts 31°
2026-05-06 19:32 8.99505 -79.43443 2027 ft 118 kts 30°
2026-05-06 19:32 9.00205 -79.43030 1863 ft 116 kts 29°
2026-05-06 19:32 9.00897 -79.42619 1698 ft 114 kts 31°
2026-05-06 19:32 9.01590 -79.42203 1536 ft 115 kts 30°
2026-05-06 19:33 9.02282 -79.41789 1375 ft 116 kts 30°
2026-05-06 19:33 9.02972 -79.41360 1208 ft 116 kts 30°
2026-05-06 19:33 9.03680 -79.40942 1046 ft 119 kts 28°
2026-05-06 19:33 9.04389 -79.40518 874 ft 119 kts 32°
2026-05-06 19:34 9.05097 -79.40076 689 ft 119 kts 34°
2026-05-06 19:34 9.05803 -79.39634 531 ft 116 kts 30°
2026-05-06 19:34 9.06482 -79.39224 377 ft 115 kts 30°
2026-05-06 19:34 9.07178 -79.38804 204 ft 117 kts 31°
2026-05-06 19:35 9.07880 -79.38371 81 ft 113 kts 30°
2026-05-06 19:35 9.08441 -79.38038 97 ft 64 kts 31°
2026-05-06 19:35 9.08616 -79.37935 108 ft 0 kts 31°
2026-05-06 19:35 9.08615 -79.37936 108 ft 11 kts 31°
2026-05-06 19:36 9.08694 -79.37888 113 ft 12 kts 31°
2026-05-06 19:36 9.08758 -79.37848 117 ft 11 kts 33°
2026-05-06 19:36 9.08820 -79.37805 121 ft 9 kts 45°
2026-05-06 19:36 9.08836 -79.37754 123 ft 6 kts 99°
2026-05-06 19:37 9.08819 -79.37713 124 ft 6 kts 118°
2026-05-06 19:37 9.08797 -79.37674 125 ft 6 kts 124°
2026-05-06 19:37 9.08770 -79.37636 125 ft 6 kts 129°
2026-05-06 19:37 9.08736 -79.37596 125 ft 7 kts 128°
2026-05-06 19:38 9.08702 -79.37560 125 ft 7 kts 157°
2026-05-06 19:38 9.08639 -79.37577 122 ft 12 kts 215°
2026-05-06 19:38 9.08552 -79.37637 117 ft 17 kts 213°
2026-05-06 19:38 9.08497 -79.37684 113 ft 11 kts 225°
2026-05-06 19:39 9.08415 -79.37772 103 ft 18 kts 226°
2026-05-06 19:39 9.08312 -79.37882 93 ft 23 kts 227°
2026-05-06 19:39 9.08224 -79.37969 88 ft 18 kts 220°
2026-05-06 19:39 9.08126 -79.38037 82 ft 18 kts 210°
2026-05-06 19:40 9.08017 -79.38107 76 ft 18 kts 213°
2026-05-06 19:40 9.07903 -79.38178 74 ft 16 kts 211°
2026-05-06 19:40 9.07888 -79.38187 74 ft 1 kts 211°
2026-05-06 19:40 9.07867 -79.38200 73 ft 5 kts 212°
2026-05-06 19:41 9.07828 -79.38224 72 ft 7 kts 212°
2026-05-06 19:41 9.07769 -79.38261 70 ft 11 kts 212°
2026-05-06 19:41 9.07692 -79.38309 69 ft 13 kts 211°
2026-05-06 19:41 9.07616 -79.38354 68 ft 6 kts 211°
2026-05-06 19:42 9.07582 -79.38375 68 ft 6 kts 211°
2026-05-06 19:42 9.07533 -79.38405 67 ft 9 kts 211°
2026-05-06 19:42 9.07468 -79.38445 65 ft 12 kts 210°
2026-05-06 19:42 9.07436 -79.38464 65 ft 0 kts 210°
2026-05-06 19:43 9.07424 -79.38470 66 ft 2 kts 210°
2026-05-06 19:43 9.07402 -79.38483 66 ft 4 kts 210°
2026-05-06 19:43 9.07374 -79.38500 66 ft 5 kts 210°
2026-05-06 19:43 9.07338 -79.38521 66 ft 7 kts 210°
2026-05-06 19:44 9.07285 -79.38551 64 ft 10 kts 210°
2026-05-06 19:44 9.07213 -79.38593 63 ft 13 kts 208°
2026-05-06 19:44 9.07128 -79.38630 63 ft 12 kts 187°
2026-05-06 19:44 9.07072 -79.38616 63 ft 8 kts 120°
2026-05-06 19:45 9.07064 -79.38601 63 ft 1 kts 118°
2026-05-06 19:45 9.07062 -79.38598 63 ft 0 kts 119°
2026-05-06 19:45 9.07063 -79.38598 63 ft 0 kts 119°